Hourly Data Report for October 09, 2004

SHERBROOKE A
QUEBEC

45°26'00.000" N
71°41'00.000" W
241.40 m
7028124
71610
YSC

Download Data

Hourly Data (October 2004)
Hourly Data Report for October 9, 2004
TIME
LST
Temp Definition
°C
Dew Point Definition
°C
Rel Hum Definition
%
Precip. Amount Definition
mm

Wind Dir Definition
10's deg

Wind Spd Definition
km/h
Visibility Definition
km
Stn Press Definition
kPa
Hmdx Definition


Wind Chill Definition


Weather Definition


00:00 9.3 8.3 93   9 4 6.4 99.09      
01:00 10.2 9.4 95   13 6 15.0 99.03      
02:00 9.3 8.2 93     0 12.9 98.96      
03:00 14.3 11.0 81   19 7 15.0 98.90      
04:00 14.1 10.8 81   18 7 15.0 98.86      
05:00 14.2 10.7 79   19 7 15.0 98.83      
06:00 12.8 9.5 80   17 6 15.0 98.81      
07:00 13.5 9.8 78   17 6 24.1 98.82     Mostly Cloudy
08:00 15.8 10.9 73   17 11 24.1 98.78     Mostly Cloudy
09:00 17.7 11.3 66   14 4 24.1 98.72     Mostly Cloudy
10:00 18.3 10.5 60   19 13 24.1 98.65     Mostly Cloudy
11:00 20.8 11.0 53   20 15 24.1 98.61     Mostly Cloudy
12:00 21.1 9.5 47   18 22 24.1 98.50     Mostly Cloudy
13:00 20.8 9.1 47   19 24 24.1 98.44     Mostly Cloudy
14:00 20.4 8.2 45   19 19 24.1 98.39     Mostly Cloudy
15:00 19.8 8.2 47   20 17 24.1 98.32     Cloudy
16:00 19.3 8.8 51   20 13 24.1 98.28     Cloudy
17:00 18.4 9.2 55   20 13 15.0 98.30      
18:00 18.1 9.7 58   20 13 15.0 98.33      
19:00 18.3 10.6 61   20 19 15.0 98.33      
20:00 17.1 10.6 66   28 24 15.0 98.42     Rain
21:00 15.6 7.5 58   25 22 15.0 98.49     Rain
22:00 13.5 9.0 74   23 9 15.0 98.50      
23:00 14.2 7.4 64   26 15 15.0 98.52      

Notes on Data Quality.

Legend

  • E = Estimated
  • M = Missing
  • NA = Not Available*
  • [empty] = Indicates an unobserved value
Date modified: